Regional Weather Roundup
Issued by NWS Cleveland, OH

Home | Current Version | Previous Version | Text Only | Print | Product List | Glossary On
Versions: 1 2 3 4 5 6 7 8 9 10 11 12 13 14 15 16 17 18 19 20 21 22 23 24 25 26 27 28 29 30 31 32 33 34 35 36 37 38 39 40 41 42 43 44 45 46 47 48 49 50
000
ASUS41 KCLE 300910
RWRCLE
OHIO REGIONAL WEATHER ROUNDUP
NATIONAL WEATHER SERVICE WILMINGTON, OH
500 AM EDT MON MAR 30 2015

NOTE: "FAIR" INDICATES FEW OR NO CLOUDS BELOW 12,000 FEET WITH NO
SIGNIFICANT WEATHER AND/OR OBSTRUCTIONS TO VISIBILITY.

OHZ001>008-015>018-024>027-034-035-043-044-301000-
   NORTHWEST OHIO

CITY           SKY/WX    TMP DP  RH WIND       PRES   REMARKS
DEFIANCE       PTCLDY    41  30  65 SW5       29.90R
FINDLAY        PTCLDY    39  32  76 W12       29.88R
TOLEDO EXPRESS PTCLDY    39  31  72 W13       29.86R
TOLEDO EXEC    PTCLDY    41  31  67 W16       29.86R
LIMA           CLEAR     41  32  70 W16       29.90S
$$

OHZ009>014-019>023-028>033-038-089-301000-
   NORTHEAST OHIO

CITY           SKY/WX    TMP DP  RH WIND       PRES   REMARKS
CLE-HOPKINS    CLOUDY    42  32  67 W15G23    29.84S
CLE-LAKEFRONT  CLOUDY    39  32  76 W17       29.81S
CUY CO. ARPT   NOT AVBL
LORAIN-ELYRIA  CLOUDY    41  32  70 W14G23    29.83S
ASHTABULA      CLOUDY    40  32  73 W23G31    29.78R
AKRON-CANTON   CLOUDY    41  35  79 W17G23    29.82R
WOOSTER        MOCLDY    39  33  79 W15       29.84R
MANSFIELD      CLOUDY    40  33  76 W13       29.85R
YOUNGSTOWN     CLOUDY    40  36  86 W16       29.79S
$$

OHZ042-051>053-060>062-070>072-077>081-301000-
  SOUTHWEST OHIO

CITY           SKY/WX    TMP DP  RH WIND       PRES   REMARKS
CINC-COVINGTON PTCLDY    44  35  70 NW13      29.98R
CINC-LUNKEN    CLEAR     45  35  68 NW8       30.00R
HAMILTON       CLEAR     42  35  76 NW7       29.99S
DAYTON         PTCLDY    41  35  79 W9        29.95R
WRIGHT-PAT AFB PTCLDY    42  37  80 W12       29.94R
DAYTON GENERAL CLEAR     43  34  70 NW8       29.94F
WILMINGTON     PTCLDY    43  36  76 NW14G23   29.94R
$$

OHZ036-037-039>041-045>050-054>059-063>069-073>076-082>088-301000-
  CENTRAL AND SOUTHEAST OHIO

CITY           SKY/WX    TMP DP  RH WIND       PRES   REMARKS
COLUMBUS       PTCLDY    43  36  76 NW14      29.90S
OSU AIRPORT    MOCLDY    42  34  73 W10       29.90S
BOLTON FIELD   MOCLDY   N/A N/A N/A W9        29.92R
RICKENBACK AFB MOCLDY    44  38  80 W9        29.91S
NEWARK         CLOUDY    44  34  67 NW9       29.89R
MARION         CLOUDY    40  33  76 W9        29.89S
LANCASTER      CLOUDY    45  39  79 W10G18    29.91R
ZANESVILLE     CLOUDY    43  37  79 W9        29.88S
NEW PHILLY     CLOUDY    43  37  79 SW7       29.86S
$$


USA.gov is the U.S. government's official web portal to all federal, state and local government web resources and services.